Reflectivity
-20 -9 -20 -14 -4 -20 -8 -20 -16 -0 -0 2 -3 -3 -19 -20 -20 -20 -20 -20 -20 -20 -20 9 -20 -20 -19 -1 -11 -20 -20 -20 -20 -20 -20 -20 -20 -20 -20 -20 -20 -20 -20 -20 -20
-20 -13 -20 -3 -20 -20 -20 -7 -1 -0 -20 -6 -20 -12 4 -20 -20 -20 -20 -20 -20 -20 -11 -14 6 -20 12 9 16 -10 -20 -20 -20 -20 -20 -20 -20 -20 -20 -20 -20 -20 -20 -20 -20
-20 -20 -20 -20 -20 -20 -20 -20 -20 -14 -20 -20 -20 -20 -20 -20 -20 -20 -20 -15 0 4 8 -20 -20 7 13 23 11 -1 -20 -20 -20 -20 -20 -20 -20 -20 -20 -20 -20 -20 -20 -20 -20
-20 -20 -20 -20 -20 -20 -20 -20 -20 -19 -20 -20 -20 -20 -20 -20 -20 -20 -20 -20 -20 -20 -15 9 1 20 12 16 5 17 -20 -20 -20 -20 -20 -20 -20 -20 -20 -20 -20 -20 -20 -20 -20
-8 -18 -20 -20 -20 -20 -20 -20 -20 -20 -20 -20 -13 -20 -20 -20 -13 -20 -20 -20 -20 -20 -0 2 14 19 3 -20 23 14 -20 -20 -20 -20 -20 -20 -20 -20 -20 -20 -20 -20 -20 -20 -20
-0 -20 -20 -20 -20 -20 -20 -20 -20 -20 -20 -20 -2 -20 10 8 -20 -20 -20 -20 -20 -20 -11 22 10 20 25 1 13 -20 -20 -7 -20 -20 -20 -20 -20 -20 -20 -20 -20 -20 -20 -20 -20
12 13 3 -4 -20 -20 -20 -20 -20 -20 -20 -20 -16 -9 4 2 -20 -20 -20 -20 -20 -20 -2 22 21 -9 -18 7 4 18 26 21 -20 -20 -20 -20 -20 -20 -20 -20 -20 -20 -20 -20 -20
12 12 13 14 11 11 -15 -20 -20 -20 -20 -20 -20 5 -14 -20 -20 -20 16 0 3 10 -16 19 -2 28 24 -20 1 -12 18 40 -17 -20 -20 -20 -20 -20 -20 -20 -20 -20 -20 -20 -20
11 13 13 13 12 10 -16 -20 -20 -20 -20 -20 -16 9 3 -20 -1 -11 -18 -3 -2 26 13 12 -5 25 15 -9 6 34 5 36 -5 -20 -20 -20 -20 -20 -20 -20 -20 -20 -20 -20 -20
12 11 6 12 11 -1 -16 -20 -20 -20 -20 -20 -20 -17 -18 -20 -20 -20 -19 9 17 27 27 -2 17 -7 -9 -20 -16 5 -8 27 -20 -20 -20 -20 -20 -20 -20 -20 -20 -20 -20 -20 -20
3 5 12 12 12 6 -20 -20 -20 -20 -20 -20 -20 -20 -20 -20 -20 -20 -18 13 20 24 11 22 13 13 -10 6 18 25 32 16 -20 -20 -20 -20 -20 -20 -20 -20 -20 -20 -20 -20 -20
7 11 6 9 5 -20 -20 -20 -20 -20 -19 -20 -20 -20 -20 -20 -17 13 10 22 19 11 14 16 5 -5 3 17 33 39 32 16 -16 -20 -20 -20 -20 -20 -20 -20 -20 -20 -20 -20 -20
8 12 12 2 -20 -20 -20 -20 -20 -20 -0 -20 -20 -20 -20 -20 -12 -18 20 32 36 24 24 1 18 22 23 19 30 30 -19 8 5 -20 -20 -20 -20 -20 -20 -20 -20 -20 -20 -20 -20
1 12 11 -18 -20 -20 -20 -20 -20 -20 8 -20 -19 -10 -7 -7 4 -20 -20 7 29 20 21 29 7 4 12 24 36 -1 -17 10 -20 -20 -20 -20 -19 -20 -20 -20 -20 -20 -20 -20 -20
11 14 -1 -20 -20 -20 -20 -20 -20 -20 -1 -20 -20 -20 -20 1 -20 -14 -20 -12 18 26 29 25 1 10 8 18 21 8 22 27 -20 -20 -20 -20 -19 -20 -20 -20 -20 -20 -20 -20 -20
7 12 8 -20 -20 -20 -20 -20 -20 -15 -6 -20 -20 -16 -7 -20 -2 -20 -20 -15 -7 10 5 14 23 16 -1 3 -13 -20 -6 -2 -20 -18 -4 -20 -20 -20 -20 -20 -20 -20 -20 -20 -20
11 11 -11 -20 -20 -20 -20 -20 -16 -7 -20 -19 -16 -2 -13 -1 -3 -20 -12 -20 14 7 10 5 23 -15 7 -20 -20 -20 9 25 23 24 10 -20 -20 -20 -20 -20 -20 -20 -20 -20 -20
-10 10 -5 -20 -20 -20 -20 -20 -0 -20 -20 -20 -20 -20 -20 -20 -17 -20 -20 14 -3 -20 17 20 12 26 -19 -20 -12 -20 26 23 22 16 4 -20 -20 -20 -20 -20 -20 -20 -20 -20 -20
-8 -20 -10 -20 -20 -20 -20 -0 -20 -20 -20 -20 -18 -14 -19 -3 -13 -19 -3 -6 -20 -15 21 19 -4 -20 -20 -20 -20 -20 -3 2 -3 19 -16 -20 -20 -20 -20 -20 -20 -20 -20 -20 -20
-20 -20 -20 -20 -20 -20 -20 -20 -20 -20 -20 -20 5 -20 0 -7 -20 -13 -18 -20 -20 -20 -20 -12 1 -20 -20 -20 -20 -20 -20 3 11 8 12 -20 -20 -20 -20 -20 -20 -20 -20 -20 -20
-20 -20 -20 -20 -20 -20 -20 -20 -20 -20 -20 -20 -20 -20 -20 -14 -20 -4 -20 -20 -20 -20 -20 -20 -15 11 -20 -20 -20 -20 -20 15 -5 -17 6 -20 -20 -20 -20 -20 -20 -20 -20 -20 -20
-20 -20 -20 -20 -17 -20 -20 -20 -20 -20 -20 -20 -20 -20 -20 -20 -20 8 -20 -19 -20 -20 -20 -20 -20 11 8 -20 -20 -20 1 -4 15 -14 -20 -20 -20 -20 -20 -20 -20 -20 -20 -20 -20
-20 -20 -19 -20 -20 -20 -20 -20 -20 -20 -20 -20 -20 -20 -20 -20 -20 -20 -20 -20 -20 -20 -20 -20 -9 8 -16 -18 -20 -20 -20 -20 -9 -20 -20 -20 -20 -20 -20 -20 -20 -20 -20 -20 -20
-20 -16 -20 -10 -20 -20 -20 -20 -20 -20 -20 -20 -20 -20 -20 -20 -20 -20 -20 -20 -20 -20 -20 -20 -20 -20 15 6 -20 -20 -20 -20 -20 -12 -20 -20 -20 -20 -20 -20 -20 -20 -20 -20 -20
-20 -20 -20 -20 -20 -20 -20 -20 -20 -20 -20 -20 -20 -20 -20 -20 -20 -20 -20 -20 -20 -20 -20 -20 -20 -20 -20 -20 -17 -20 -20 -20 -20 -20 -20 -20 -20 -20 -20 -20 -20 -20 -20 -20 -20
-20 -20 -20 -20 -20 -20 -20 -20 -20 -20 -20 -20 -20 -20 -20 -20 -20 -20 -20 -20 -20 -20 -20 2 -6 -20 -20 -20 -20 -0 -20 -20 -20 -20 -20 -20 -20 -20 -20 -20 -20 -20 -20 -20 -20
-20 -20 -20 -20 -20 -20 -20 -20 -20 -20 -20 -20 -20 -20 -20 -20 -20 -20 -20 -20 -18 -20 -20 1 -20 -20 -0 -20 -20 -20 -20 -20 -20 -20 -20 -20 -20 -20 -20 -20 -20 -20 -20 -20 -20
Wind_Speed
7 7 8 9 9 9 10 11 12 14 14 15 13 12 11 9 8 9 12 9 7 15 15 11 10 15 15 13 17 10 13 19 24 26 16 19 19 11 9 10 9 7 5 9 24
8 8 8 9 10 9 11 12 13 14 15 16 13 12 11 8 11 12 8 4 10 13 14 15 14 14 14 14 9 16 16 23 20 22 16 20 15 15 8 12 11 9 4 24 22
7 8 9 10 10 11 12 12 13 14 15 14 14 14 10 9 12 2 8 7 8 14 13 15 15 15 19 19 19 19 22 17 24 13 10 12 16 17 16 18 15 19 20 23 23
8 9 10 10 10 11 12 13 13 13 12 13 15 10 3 7 5 5 6 8 9 7 9 12 13 11 8 17 18 21 23 24 22 4 8 15 15 19 17 6 10 18 21 23 23
9 9 10 10 10 11 12 13 14 14 14 13 12 5 8 5 9 6 1 6 10 5 11 15 15 16 17 14 17 12 24 20 25 14 10 15 17 15 18 5 1 20 22 23 21
9 9 10 11 12 13 13 15 16 17 15 13 12 8 9 12 4 3 6 9 10 10 12 14 13 14 8 13 14 9 17 23 23 20 15 14 16 14 12 6 10 19 21 22 21
10 11 12 12 13 13 15 16 17 17 14 10 10 7 10 13 2 4 7 8 10 11 13 12 16 10 9 4 16 19 20 24 20 24 16 13 19 15 7 11 16 17 18 20 20
11 11 12 13 14 15 16 17 17 17 10 8 9 8 7 2 4 9 8 10 12 13 11 10 6 13 5 3 3 9 17 19 26 24 16 12 19 19 12 15 17 18 17 18 19
12 12 13 15 14 14 16 18 19 12 9 7 7 6 10 3 6 9 1 7 6 11 12 7 8 4 4 2 2 7 11 26 26 24 17 16 14 20 14 15 17 17 18 17 18
12 12 13 15 14 14 16 21 10 7 7 6 6 7 8 9 13 6 4 11 5 13 8 8 7 6 4 5 12 10 16 24 23 21 23 16 14 12 15 16 17 18 18 18 17
12 12 12 14 12 12 13 7 5 6 5 4 8 10 11 13 4 3 4 9 5 14 7 9 5 9 16 16 14 17 23 24 24 18 22 18 18 12 14 15 17 18 19 18 16
10 11 13 12 12 12 7 4 5 4 7 6 8 9 8 4 7 3 3 5 2 10 10 3 11 15 7 4 12 20 23 22 21 12 21 19 17 12 15 16 17 20 20 19 17
11 11 12 12 11 7 4 4 2 3 5 6 5 6 6 4 5 5 1 4 1 2 6 7 3 7 11 6 10 16 23 19 13 13 21 18 16 12 12 13 13 15 16 17 18
10 10 10 10 8 2 0 2 1 3 3 6 2 1 5 7 5 2 3 4 4 3 5 5 4 8 11 8 11 12 18 18 18 18 14 19 11 16 17 15 14 14 15 16 17
9 9 7 4 5 2 3 1 2 4 4 5 4 4 6 8 9 4 0 4 7 1 3 1 2 7 12 8 12 4 1 17 19 20 16 20 7 17 19 17 18 17 16 16 14
7 7 5 5 3 2 1 2 4 4 3 5 5 6 6 3 3 5 3 3 0 4 5 0 4 3 2 7 12 7 6 1 15 13 10 19 11 18 17 19 18 18 18 16 16
7 5 4 2 3 3 3 4 3 3 1 5 4 6 6 5 4 5 5 6 4 4 3 3 1 1 4 6 7 10 11 4 7 5 9 5 5 4 19 19 21 20 19 17 15
4 3 3 2 1 3 4 4 3 1 2 1 2 7 5 6 2 4 4 4 1 5 3 3 4 2 3 3 4 9 8 4 6 6 7 3 9 7 11 5 5 11 16 15 14
2 4 3 2 2 3 6 3 2 2 3 4 4 7 1 1 4 3 4 4 3 3 4 2 3 1 3 4 5 5 6 3 4 4 8 7 5 6 8 7 9 10 12 13 14
3 4 2 2 3 4 4 4 2 2 2 3 6 2 5 3 3 2 2 3 3 4 5 2 0 2 2 2 2 2 5 2 3 6 9 7 12 4 11 12 12 13 14 14 13
4 4 3 2 4 5 4 3 3 5 3 4 5 6 5 5 5 5 3 0 4 6 4 7 4 3 2 4 4 4 5 3 4 4 2 9 9 5 9 13 14 13 14 14 14
2 4 2 3 4 3 4 2 1 4 5 5 5 7 7 6 6 4 5 3 4 6 6 5 5 2 2 2 4 6 8 10 4 3 1 4 6 2 4 11 13 13 14 14 13
3 2 0 3 4 5 3 4 5 5 6 3 5 5 3 5 5 2 2 2 3 3 8 7 3 3 3 3 2 4 2 2 7 3 3 5 6 2 5 10 12 14 14 14 14
3 3 3 3 5 5 5 6 5 4 6 5 7 5 6 7 5 6 4 0 1 2 4 4 4 6 4 2 3 3 4 2 5 4 2 5 7 6 7 12 13 14 14 14 13
4 3 2 4 7 8 2 3 6 4 6 5 5 9 6 6 6 5 3 3 4 2 3 4 5 4 2 3 3 2 4 5 5 6 5 6 6 7 7 12 14 13 14 15 14
3 3 3 4 3 6 6 4 7 5 4 5 7 3 5 8 6 6 3 3 2 3 2 1 4 3 3 0 3 5 7 7 8 7 7 7 10 3 8 11 13 13 14 14 14
2 1 4 4 4 5 5 4 3 3 5 4 3 6 6 4 5 6 4 2 2 3 4 2 2 4 1 1 2 6 14 12 6 7 7 7 3 6 4 9 12 13 15 15 15
Wind_Direction
335 336 343 333 330 324 328 329 330 329 326 328 324 317 312 305 286 248 254 260 275 261 280 285 265 227 240 241 236 232 242 238 235 235 244 219 207 209 242 150 177 174 349 132 135
337 332 329 327 321 325 331 331 325 325 328 332 329 314 307 301 277 269 283 261 271 266 264 242 257 227 227 231 229 222 234 238 242 237 237 230 199 198 191 179 178 171 156 127 143
329 320 321 325 322 328 328 326 327 327 332 334 329 317 300 267 270 111 32 15 339 268 254 268 265 266 233 239 223 222 241 234 253 263 264 289 211 191 217 198 193 181 151 150 159
314 316 324 321 321 322 326 330 328 319 333 339 339 332 277 239 291 76 20 354 338 303 257 248 237 235 229 232 233 242 233 243 255 228 281 256 256 221 217 187 231 167 160 159 167
320 316 315 314 315 320 324 324 322 317 312 327 337 337 283 267 271 129 322 319 307 275 247 228 232 222 234 224 246 254 250 224 243 254 258 268 255 215 216 95 296 137 159 166 167
318 312 314 314 314 316 318 316 319 317 317 307 313 288 274 275 100 158 305 301 260 266 258 232 234 239 269 264 210 260 244 248 225 244 249 252 238 222 213 146 170 154 167 168 170
314 313 318 314 313 315 314 313 312 314 314 297 295 269 277 265 286 277 295 287 278 246 255 249 230 208 154 274 257 235 255 252 235 228 234 234 237 208 158 168 160 169 170 168 171
317 317 315 311 312 316 314 311 305 308 308 285 280 268 266 94 315 279 279 287 266 240 246 256 223 226 220 2 314 269 242 254 210 223 216 220 221 209 166 170 168 169 170 170 169
320 318 318 313 317 314 310 303 300 292 299 261 243 236 277 138 258 348 276 255 274 241 226 210 177 219 147 60 270 224 277 226 201 207 213 208 231 153 171 179 169 168 167 172 165
316 314 318 315 317 315 309 296 291 276 225 227 253 266 210 325 320 338 264 249 221 210 191 183 187 184 143 171 238 246 247 215 200 188 213 203 231 151 173 182 173 170 167 172 170
308 310 318 317 319 318 315 286 230 185 229 310 319 285 298 327 313 20 351 5 242 180 183 187 193 208 222 217 231 248 246 199 199 182 196 206 216 177 179 185 174 170 169 170 171
305 313 312 321 319 314 291 322 44 2 298 229 281 278 281 343 292 85 34 4 212 201 177 179 236 228 223 257 237 239 242 196 198 163 196 202 212 176 180 183 178 173 173 172 168
309 306 314 317 310 278 321 37 34 323 268 285 300 294 311 310 300 322 6 164 274 347 219 223 329 212 200 205 256 244 221 191 165 187 206 183 191 177 181 185 179 181 175 169 175
304 306 310 318 273 8 260 95 289 317 287 284 319 72 283 287 255 226 204 266 243 65 190 268 278 232 225 212 232 232 210 187 172 181 182 190 185 196 180 182 188 184 180 181 180
300 299 311 315 329 267 46 250 211 232 302 316 329 346 280 298 314 144 154 316 6 76 223 24 250 254 216 197 217 254 225 224 171 198 172 191 250 181 173 193 190 187 189 187 178
295 287 296 208 235 61 233 218 226 244 293 329 332 334 305 278 311 298 284 192 99 277 222 127 211 291 289 191 242 275 181 226 192 209 186 188 209 172 188 195 182 188 186 185 176
304 264 256 308 6 153 237 230 278 301 69 321 334 313 322 327 313 335 352 312 315 299 21 288 64 299 210 220 176 221 168 155 162 198 187 185 204 45 176 190 192 183 185 181 175
308 227 195 319 238 208 241 241 282 252 260 73 203 299 309 348 350 304 307 301 258 283 333 330 139 31 343 260 214 199 193 155 188 168 140 169 218 106 96 77 68 169 175 165 163
178 195 201 121 200 241 255 267 298 312 338 302 284 256 284 268 275 303 259 323 332 316 331 298 43 37 4 330 322 166 211 92 289 295 159 167 158 132 145 144 144 141 145 161 165
233 216 143 142 233 240 260 262 258 218 294 264 294 319 351 23 258 257 332 55 325 310 305 329 104 33 40 284 108 302 120 26 203 225 169 179 185 144 180 170 159 158 163 158 154
233 235 94 219 245 229 252 269 249 209 232 283 311 291 313 330 307 313 322 343 9 340 303 305 287 111 285 3 349 163 204 197 280 298 248 158 192 20 174 173 165 160 155 156 154
265 237 115 227 240 220 246 227 327 225 198 263 283 282 297 328 300 306 302 329 359 327 324 22 312 208 113 7 316 306 326 314 262 224 330 310 108 42 89 161 162 156 153 155 151
248 77 107 248 248 215 192 248 249 215 216 213 266 251 305 300 302 273 274 31 329 328 353 4 256 194 174 216 209 273 344 327 302 336 326 312 92 98 129 160 162 157 157 153 149
259 229 154 219 278 282 278 250 236 216 249 237 274 259 266 264 232 295 286 250 317 329 325 290 295 302 284 16 340 205 220 228 303 297 61 45 81 148 157 169 166 161 158 158 156
211 243 7 201 215 228 221 291 245 231 225 222 240 242 281 278 270 258 263 240 194 204 236 343 308 345 336 16 285 296 280 210 221 269 297 30 11 57 155 173 171 165 168 164 161
264 242 175 286 244 215 195 237 244 220 236 211 241 277 255 263 305 308 313 250 208 155 183 226 298 311 264 75 330 302 267 246 234 272 282 283 298 150 126 154 169 175 173 173 170
126 185 280 121 209 222 219 252 253 220 204 263 279 276 253 298 323 315 294 280 318 308 194 235 292 323 330 269 252 256 246 220 206 210 236 232 347 123 154 173 179 181 180 185 180